GFSNW_850_dewp_021.txt.gz
Dewpoint
1 2 1 0 -1 -4 -2 4 4 5 -2 2 5 6 4 -2 -1 -0 0 0 -1 1 -0 3 3 5 3 1 2 1 -1 2 2 1 -2 -3 -2 1 2 4 4 4 4 3
0 2 2 3 -1 -4 2 4 5 4 -1 5 6 4 1 -1 -0 -0 -1 2 2 1 3 4 6 5 3 2 3 4 2 2 4 4 3 0 -2 -1 -1 4 3 2 2 1
-1 1 3 4 -1 -2 2 7 6 4 5 6 6 4 2 2 1 1 0 1 0 2 3 2 6 5 4 2 0 -1 2 1 2 4 -0 -3 -3 -3 -4 2 4 4 4 3
-3 0 4 4 -0 -1 6 6 6 0 4 3 5 4 3 4 3 1 1 1 1 2 3 4 6 5 4 3 -0 1 2 3 3 2 -1 -2 -3 -2 -2 -2 -1 1 0 1
-4 -1 2 3 2 1 6 6 7 -1 1 -4 3 4 2 4 2 2 2 1 1 3 4 4 5 4 3 3 0 2 3 5 2 1 2 1 -0 0 0 -1 -1 -0 -0 2
-6 -4 -0 3 3 4 5 5 2 6 6 3 6 4 2 2 2 1 2 1 4 4 3 2 2 1 0 2 2 3 5 3 3 5 4 4 3 2 -0 -1 -1 -1 0 1
-6 -5 -2 0 2 3 6 4 4 5 5 6 5 3 2 3 1 2 3 2 3 2 1 0 0 1 1 2 2 4 3 4 3 3 1 -3 2 -2 -1 0 -0 -1 1 2
-6 -6 -5 -1 -1 2 4 2 6 4 4 7 4 1 2 3 4 5 4 3 2 1 2 3 -1 2 -2 1 2 3 4 3 2 3 4 1 1 0 1 1 1 3 4 2
-6 -7 -5 -3 -1 -2 -3 2 5 4 5 5 5 2 2 5 6 5 5 3 2 4 5 1 2 4 1 4 3 2 4 2 2 4 2 0 1 0 -1 -0 3 4 3 3
-5 -7 -6 -4 -0 -1 -1 -1 2 5 4 4 4 5 5 4 5 6 5 5 5 5 2 4 4 4 3 4 4 3 4 4 2 1 0 2 2 -0 -1 2 1 4 3 3
-4 -6 -7 -5 -1 0 1 -1 3 3 5 5 5 4 4 4 5 4 5 4 5 5 5 4 4 3 3 3 3 3 2 3 2 3 4 3 -1 -0 1 1 4 4 3 2
-4 -5 -6 -6 -2 1 2 -0 0 1 3 4 5 5 5 4 5 5 4 1 6 6 5 3 4 4 5 4 3 2 3 3 3 2 2 -1 -0 -0 1 1 3 3 2 2
-4 -4 -6 -6 -4 1 3 3 1 0 0 3 2 3 4 4 5 5 4 5 4 5 6 5 4 3 3 3 4 2 0 1 3 3 2 1 2 2 3 4 3 2 1 -2
-2 -3 -4 -5 -4 -1 0 1 3 3 2 5 7 5 2 2 5 5 4 3 4 5 6 4 3 2 4 3 2 2 1 2 2 2 1 1 3 3 3 3 3 2 0 0
-1 -2 -3 -3 -3 -2 -0 1 2 5 4 4 7 6 6 3 1 2 4 4 4 6 5 3 2 3 3 5 3 3 3 2 3 2 2 3 4 4 3 3 3 -0 -0 -4
1 1 -0 -1 -1 -0 1 2 1 2 6 3 4 6 5 4 3 6 4 5 5 5 4 4 4 5 3 3 3 3 2 1 1 2 4 3 4 4 3 2 1 -2 -4 -6
3 2 1 1 1 2 5 4 6 3 3 2 5 5 5 5 6 7 7 6 6 6 6 6 6 5 5 2 3 2 1 -0 1 2 3 3 2 2 0 0 -3 -4 -10 -10
4 4 3 3 3 4 5 5 3 4 4 4 4 4 4 5 6 5 5 6 6 5 5 6 5 5 5 4 4 2 2 1 2 3 3 3 2 1 -2 -3 -8 -10 -10 -10
4 4 4 4 4 4 4 5 4 4 5 5 4 2 2 4 4 4 4 4 3 4 4 5 5 2 4 4 3 2 1 2 2 2 2 0 -0 1 -7 -10 -9 -9 -9 -9
4 4 4 5 3 4 4 4 4 3 5 5 4 4 3 3 3 3 3 3 2 3 2 3 2 3 3 2 2 2 2 2 1 1 2 1 -8 -9 -9 -9 -9 -8 -9 -14
5 5 5 5 5 4 3 5 4 4 3 5 4 4 3 3 2 2 3 2 1 3 1 2 3 3 1 -0 2 2 2 2 1 -1 -4 -7 -9 -9 -9 -8 -8 -10 -16 -15
4 4 4 4 4 4 3 2 2 2 3 2 3 4 4 4 3 2 2 2 1 3 2 3 2 -0 2 2 1 -0 -1 -3 -6 -7 -9 -9 -9 -9 -10 -14 -16 -15 -13 -13
3 2 2 2 0 2 2 3 2 2 1 1 2 1 2 2 2 1 1 2 2 2 2 1 -0 1 1 1 -1 -5 -8 -9 -9 -10 -10 -10 -12 -17 -19 -18 -15 -13 -14 -12
1 0 1 1 1 1 0 0 0 -0 0 0 1 0 1 1 1 0 2 1 1 2 1 -1 1 1 0 -2 -4 -6 -8 -8 -10 -12 -12 -14 -18 -18 -17 -14 -13 -13 -12 -11
0 0 1 -0 -1 -1 -1 -1 -1 -0 -0 0 0 -0 0 -0 0 -0 0 1 2 2 2 0 1 -0 -2 -3 -5 -6 -7 -8 -8 -10 -14 -15 -16 -15 -15 -14 -13 -13 -11 -10
-1 -1 -1 -1 -0 -1 -1 -1 -1 -0 -0 -0 0 -0 1 0 0 1 2 2 2 1 0 -1 -3 -4 -4 -5 -5 -6 -7 -10 -12 -12 -14 -14 -13 -13 -13 -12 -12 -10 -8 -9
-1 -2 -1 -1 -1 -1 -0 -1 -1 -0 -0 -0 0 1 -0 -1 0 1 0 1 -0 -1 -3 -4 -5 -5 -5 -7 -11 -10 -9 -9 -11 -12 -13 -13 -12 -11 -10 -9 -8 -7 -6 -6

GFSNW_850_dewp_024.txt.gz
Dewpoint
1 1 -1 -3 -3 -2 -1 2 3 4 3 -3 5 5 5 -1 -1 -1 -0 0 1 -0 0 4 5 5 3 3 3 -1 -1 1 2 1 -2 -3 -2 0 1 3 1 3 3 1
1 2 -0 -2 -3 -2 1 3 7 6 1 0 3 3 1 -1 -1 -1 -1 1 2 2 3 6 6 5 3 -0 2 3 -0 1 3 4 3 1 -1 -1 3 2 1 2 1 1
1 3 1 0 -2 -3 3 5 5 5 5 6 2 5 1 2 1 1 1 1 1 2 3 4 5 5 4 -1 -1 -1 2 2 1 4 2 -1 -3 -3 1 2 3 3 2 1
0 3 3 2 -2 -2 4 7 5 -0 2 2 4 4 2 3 2 1 0 1 1 2 4 5 6 5 4 2 -1 0 1 3 2 0 -0 -2 -3 -2 -2 -2 -0 2 -0 2
-1 2 3 4 -1 -1 3 6 7 0 -1 -4 2 4 4 3 2 1 1 1 2 2 4 3 6 4 3 2 -0 1 3 3 0 -1 3 2 -1 -1 0 0 -2 -1 2 4
-3 0 3 4 0 -1 4 5 5 2 6 0 3 4 3 4 2 2 3 3 3 3 3 3 2 2 2 2 1 4 4 2 1 0 3 2 2 1 0 -1 -1 -1 1 1
-4 -1 2 3 3 -0 5 5 5 4 3 4 3 3 2 3 2 4 4 2 2 2 1 -0 0 1 1 2 3 2 3 3 1 -0 -2 -6 -2 -1 -1 -0 0 2 2 2
-5 -3 1 2 3 3 5 4 6 3 3 6 4 2 5 4 4 5 5 4 1 -0 -4 -0 -2 0 -0 1 4 5 2 1 2 -2 2 -3 -1 1 0 -0 1 3 3 2
-6 -4 -2 0 1 4 2 3 5 2 2 4 5 4 4 5 5 4 5 3 3 1 1 -1 1 1 -4 3 3 2 3 -0 -1 3 -3 -4 -4 0 -1 -1 3 3 3 2
-6 -5 -4 -2 -1 -2 -2 3 4 2 4 5 5 4 4 4 4 5 5 4 4 3 -0 4 0 4 1 4 3 2 3 1 2 -2 -1 0 -1 -0 -1 2 0 4 3 3
-6 -6 -5 -2 -1 -1 -1 -0 2 3 4 5 5 5 4 4 3 4 5 3 4 3 1 0 4 1 2 2 3 2 2 3 2 1 -0 1 -1 0 1 -0 3 3 3 3
-5 -6 -5 -3 -1 1 -1 0 2 2 1 5 5 5 5 4 3 3 4 -1 4 3 3 2 4 1 4 2 3 1 1 0 2 2 2 -2 -1 -1 -1 -0 2 3 3 2
-4 -5 -6 -5 -2 0 1 -1 -0 -0 1 4 5 4 5 6 5 3 2 5 4 4 2 4 2 0 2 3 3 3 1 1 3 2 1 1 -0 1 0 2 2 3 2 0
-3 -4 -5 -5 -4 -0 2 0 -0 -1 -1 2 6 5 3 5 6 5 4 3 4 4 4 3 2 0 2 1 0 1 -0 2 2 1 1 3 3 2 2 3 3 2 1 0
-2 -4 -5 -5 -4 -2 -1 0 1 1 0 4 6 6 5 2 3 5 5 4 4 5 5 2 2 2 2 2 1 2 2 1 2 2 0 0 1 3 3 3 3 2 0 -2
-1 -2 -3 -4 -2 -1 -1 -1 2 3 4 2 1 5 4 3 4 4 5 5 5 5 4 3 3 5 2 3 5 3 2 2 2 2 2 2 3 3 3 3 1 0 -4 -5
0 -1 -2 -2 -1 -0 -0 1 4 4 4 1 4 5 4 5 6 6 6 6 6 6 6 5 5 5 5 2 3 2 0 -0 1 1 3 4 4 3 2 1 0 -5 -7 -10
2 2 1 0 1 4 4 4 4 4 2 3 2 1 4 5 6 6 6 6 6 6 5 6 5 4 3 4 4 3 3 2 2 3 3 2 2 1 1 1 -6 -9 -10 -10
4 3 3 2 2 2 4 5 4 5 4 4 3 1 2 5 4 4 5 5 2 4 3 4 4 2 3 3 3 3 2 3 3 3 3 2 1 -1 -4 -8 -10 -10 -9 -9
4 4 2 3 3 4 3 4 3 3 5 5 3 3 2 4 3 3 3 3 1 3 2 4 2 3 3 2 2 2 2 2 2 2 2 2 1 -6 -6 -9 -9 -8 -10 -13
4 4 4 5 4 3 3 3 3 4 3 4 4 4 3 3 2 2 2 1 1 2 -0 1 1 2 1 1 1 2 2 2 2 2 1 -4 -6 -8 -7 -6 -8 -12 -15 -18
4 4 5 5 4 3 3 2 2 2 3 2 3 3 4 4 2 2 2 1 1 2 1 2 3 0 1 0 -1 -1 -0 -2 -2 -4 -3 -4 -3 -2 -8 -14 -18 -18 -18 -17
4 3 3 2 1 2 4 4 2 2 1 2 2 2 3 3 3 2 1 2 2 1 2 2 1 1 -2 -7 -6 -7 -6 -2 -4 -3 -1 -5 -11 -15 -19 -20 -18 -16 -15 -13
2 1 1 1 1 0 -0 0 0 -0 0 0 1 0 1 1 1 0 2 1 0 2 1 -1 1 2 1 -1 -6 -8 -9 -8 -11 -12 -11 -13 -15 -16 -17 -16 -15 -13 -12 -12
-0 -1 0 -1 -2 -2 -1 -1 -0 -0 -0 0 0 0 0 -0 -0 -0 -0 0 1 1 1 0 -0 1 -1 -7 -8 -7 -8 -7 -8 -10 -13 -14 -15 -15 -15 -13 -12 -11 -11 -9
-1 -2 -2 -1 -1 -1 -1 -1 -1 -0 -0 -0 0 -0 1 -0 -0 0 1 1 0 0 -0 0 -0 -1 -2 -1 -1 -7 -8 -10 -11 -12 -14 -14 -13 -13 -12 -12 -11 -9 -8 -7
-2 -1 -1 -1 -1 -1 -1 -1 -1 -0 -0 -1 -1 -1 -1 -1 -1 0 0 -0 -0 -0 -1 -2 -2 -2 -3 -3 -5 -8 -8 -10 -12 -13 -13 -13 -11 -10 -10 -9 -11 -9 -9 -9

GFSNW_850_dewp_027.txt.gz
Dewpoint
-0 1 -0 -2 -2 -2 -2 -2 1 4 -2 -3 4 5 5 1 -1 -1 0 1 -0 0 2 5 4 4 2 3 2 -2 -0 1 2 1 -2 -1 -1 0 -0 0 0 3 2 1
0 2 0 -2 -2 -2 -0 1 8 7 -1 -1 2 1 3 -0 -1 -0 -0 1 1 1 4 5 5 4 3 -0 2 1 -1 1 3 3 2 -1 -0 -0 2 1 1 2 1 0
1 2 -0 -2 -2 -2 1 4 5 6 4 0 -0 3 2 2 1 1 1 1 1 2 4 5 5 5 3 -1 -1 1 1 2 1 3 1 -0 -3 -3 1 1 2 2 1 -1
2 3 -0 -2 -2 -2 3 6 3 3 3 4 5 3 2 2 2 1 0 1 1 2 4 5 6 5 3 0 0 0 0 2 1 0 0 -2 -3 -3 -1 -0 -0 1 -1 1
2 3 1 -1 -3 -1 4 6 5 -0 -1 -1 3 4 4 3 2 1 1 1 3 2 3 3 5 4 2 -1 0 2 2 2 -1 0 2 2 -1 -3 -3 -2 -2 1 -0 3
2 4 3 0 -3 -1 4 6 6 -2 3 2 2 4 4 3 2 3 2 3 3 2 3 3 3 2 1 1 2 4 2 1 -1 -3 2 -1 -3 -3 0 -1 -1 -1 3 1
1 3 3 1 -3 -3 1 5 6 4 4 0 0 4 2 3 2 4 3 2 2 1 1 1 1 1 2 3 4 2 2 2 -2 -2 -2 -6 -4 -2 -1 -2 -0 1 2 2
1 3 3 2 -3 -1 3 5 6 2 2 5 3 4 5 4 4 5 5 3 2 -1 -5 -2 -3 -1 -1 1 4 3 2 0 1 -1 -0 -4 -4 0 0 -0 -0 2 2 1
1 2 3 2 -1 -2 3 4 4 1 4 5 4 4 4 4 4 4 5 3 1 1 -2 -2 -2 -3 -5 2 3 3 1 -2 -2 2 -4 -6 -6 -0 -1 -2 2 2 1 2
-1 2 2 3 2 3 4 5 4 1 5 6 5 4 4 3 3 4 5 4 4 1 -1 -1 -0 2 -1 3 2 3 3 -0 -0 -3 -3 -1 -4 -0 -2 0 -2 3 2 2
-3 0 2 1 1 2 -0 3 2 2 5 6 6 5 4 4 3 3 4 3 3 1 0 -1 1 -1 2 2 2 3 3 4 3 2 0 1 -3 -0 1 -1 -2 1 3 2
-3 -2 -0 0 0 -1 -0 1 2 2 2 6 6 6 5 3 2 2 4 2 3 2 1 0 1 1 3 1 2 0 1 -0 1 1 1 -2 -1 -0 -1 -2 -2 2 2 3
-5 -4 -3 -1 0 -0 -2 1 2 0 4 5 5 6 6 6 4 2 2 2 2 2 0 3 1 -1 1 3 3 2 1 -1 1 1 -1 -0 -2 -1 -0 -0 1 1 3 3
-5 -6 -5 -3 -2 -1 -1 -1 -1 -3 -2 3 5 4 5 6 6 4 3 2 2 2 2 2 1 -2 1 0 0 1 0 1 1 1 1 2 2 0 0 1 2 2 3 2
-5 -5 -5 -5 -3 -1 -1 -1 -1 -2 -2 3 6 5 4 3 5 6 5 4 3 4 4 1 2 0 1 1 0 2 1 1 1 2 -1 1 0 0 1 2 3 2 2 1
-4 -4 -5 -5 -4 -3 -2 -2 1 2 -1 -1 2 5 4 4 4 4 5 5 5 5 4 3 2 2 2 3 4 3 1 -1 -1 -0 0 1 2 2 2 3 2 2 1 0
-3 -3 -4 -4 -3 -3 -5 -3 2 3 2 -1 4 4 4 5 6 6 6 5 6 5 4 4 3 5 4 2 4 1 -1 -1 -1 0 2 3 3 3 3 3 3 1 -3 -4
-1 -1 -2 -1 -1 -0 2 4 3 4 1 1 1 0 4 5 6 6 6 6 6 6 5 5 4 4 2 3 3 2 2 3 3 2 2 2 2 3 3 3 -0 -7 -4 -6
2 1 1 1 2 3 3 4 4 4 2 2 2 0 1 5 4 4 5 5 2 4 3 3 3 2 4 3 3 2 2 2 3 3 3 3 3 3 2 -2 -3 -2 -7 -9
3 2 1 2 2 3 3 3 2 3 4 4 2 2 2 4 3 3 2 2 1 3 1 4 2 3 3 1 1 1 2 2 2 3 3 2 -3 -4 -3 -1 -1 -8 -8 -5
3 2 3 4 4 3 3 3 2 3 3 4 3 3 2 2 2 1 2 1 1 2 -1 2 1 1 0 0 1 2 2 2 3 2 2 -1 -2 -1 -2 -6 -5 -3 -8 -18
3 3 4 4 3 3 1 1 2 2 3 2 3 3 3 3 2 1 2 1 1 2 1 2 1 -0 -5 -5 -5 -4 -2 0 -1 -1 -0 -1 -2 -3 -2 -2 -8 -16 -18 -17
4 4 4 3 2 3 4 4 2 2 1 1 2 2 2 3 3 1 1 2 2 1 2 3 1 -3 -6 -3 -2 -0 0 -0 -0 -1 -1 -2 -2 -6 -15 -17 -18 -17 -16 -14
2 2 1 1 1 -0 -0 0 0 -0 0 1 1 1 1 1 1 0 2 1 0 2 2 -1 0 -0 -0 -3 -6 -5 -7 -10 -11 -9 -5 -9 -14 -15 -17 -16 -15 -14 -13 -12
-0 -0 -0 -1 -2 -2 -1 -1 -0 -0 -0 0 1 0 0 -0 0 -0 -0 0 1 0 -1 -1 -1 -1 -1 -6 -5 -3 -8 -7 -9 -11 -12 -14 -14 -15 -15 -14 -12 -11 -10 -9
-2 -2 -1 -1 -1 -1 -1 -1 -1 -0 -0 -0 0 -0 0 -0 -0 -2 -1 -1 -2 -2 -1 -1 -0 -2 -1 -1 -2 -6 -6 -5 -10 -12 -13 -13 -13 -13 -12 -12 -12 -10 -9 -9
-3 -1 -1 -1 -1 -1 -1 -1 -1 -0 -0 -1 -1 -2 -1 -1 -1 -0 -0 -1 -1 -1 -2 -3 -2 -2 -2 -2 -2 -6 -6 -9 -9 -11 -12 -12 -11 -11 -11 -11 -12 -11 -11 -11

GFSNW_850_dewp_030.txt.gz
Dewpoint
-0 0 0 0 -1 3 4 2 1 4 -1 -2 2 4 5 4 -1 -1 1 0 -1 -0 1 3 3 3 2 2 2 -2 -0 0 2 1 -2 -1 -1 -0 -2 -0 -1 2 2 1
0 -0 1 -0 -1 2 4 1 8 7 -0 1 2 1 3 1 -1 0 0 1 1 2 4 4 4 4 2 0 1 -0 -1 1 3 1 -2 -2 -1 1 1 -0 0 2 1 -1
0 -0 1 -1 -1 -0 4 2 6 7 4 -4 -0 -0 3 2 1 1 0 1 1 3 5 4 5 4 3 -1 -1 1 -1 1 1 2 -1 -1 -2 1 0 -1 1 1 1 -2
0 1 1 -1 -1 -0 4 3 4 4 5 5 -0 0 1 2 1 1 0 1 2 3 5 5 5 4 3 -1 1 1 -1 1 1 1 1 -1 -4 -3 1 -0 -1 -0 -2 0
1 1 0 -2 -1 1 6 6 3 0 1 4 3 3 3 2 2 2 1 1 3 2 3 2 5 4 2 -2 1 2 1 2 -2 2 2 1 -0 -2 -2 -2 -2 0 -1 -1
1 2 -0 -2 -1 1 4 6 3 -1 2 3 3 4 4 3 2 3 2 2 2 2 3 3 3 1 1 0 1 3 1 1 -1 -0 0 -3 -3 -2 -2 -2 -1 -2 0 -1
2 2 -0 -2 -1 0 2 5 3 2 2 0 3 3 3 3 2 3 3 2 1 2 2 1 1 2 3 3 4 1 0 -0 -3 -3 -3 -5 -5 -3 -2 -2 -2 -2 -0 0
3 3 0 -2 -2 1 2 5 5 2 1 0 1 4 5 4 4 5 5 4 1 -0 -4 -0 0 -1 -0 1 3 1 -0 -1 0 -2 -1 -5 -7 -2 0 -0 -1 0 0 1
3 3 2 0 -2 -0 1 5 6 2 3 3 2 4 4 4 4 3 5 3 0 1 -3 -2 -1 1 -1 1 3 2 -1 -3 -2 -1 -4 -6 -6 -4 -1 -2 2 -1 1 1
3 3 3 1 -2 -1 1 4 5 2 5 6 4 3 4 3 3 3 4 3 3 -0 -2 -2 -1 -1 -2 1 1 3 2 -0 -1 -2 -3 -2 -5 -2 -2 0 -1 1 1 1
3 3 3 0 -1 -1 3 4 4 2 6 7 5 4 3 3 2 3 4 3 3 0 0 -1 -0 -1 1 2 1 4 3 4 4 0 -1 1 -4 -0 1 -0 -4 -2 -0 0
3 5 4 3 1 4 4 5 3 2 3 6 6 6 4 3 2 2 4 2 3 1 0 -2 -0 1 2 0 1 0 2 -0 1 0 1 -3 -3 -0 -1 -2 -3 -2 -1 -1
2 4 4 2 2 1 3 3 2 1 6 6 6 6 6 4 3 2 2 1 2 1 -2 0 0 -2 -0 1 2 2 1 -1 -0 -0 -2 -1 -2 -3 -2 -0 -0 -0 0 1
-1 2 3 1 -0 -0 -1 -0 0 -1 1 4 6 5 6 6 5 2 1 1 0 0 0 1 -0 -2 0 -1 -1 0 0 0 0 0 -0 -0 -1 -1 -2 -2 -1 0 1 2
-3 -2 2 2 1 -0 0 -1 -3 -4 -5 3 5 4 4 5 6 5 4 3 2 2 3 1 1 -1 0 1 -1 2 0 1 1 1 -3 -2 -2 -2 -0 1 1 2 2 3
-3 -2 -1 -0 -0 -0 -1 -1 0 -2 -4 -1 3 4 5 5 6 5 5 4 4 4 4 4 2 1 1 3 4 1 0 -1 -2 -2 -1 1 0 0 2 2 2 3 2 1
-4 -4 -4 -3 -3 -4 -7 -3 3 1 -2 -3 3 3 4 6 6 6 6 6 5 5 4 3 3 4 3 1 3 1 0 0 0 1 1 2 1 2 2 3 3 2 1 -3
-3 -4 -4 -4 -4 -4 -1 3 4 2 -2 -2 0 0 4 5 6 5 5 6 6 5 4 4 3 3 2 3 3 3 3 2 2 2 3 3 3 3 3 3 2 -2 -7 -3
-2 -2 -3 -3 -3 -0 4 3 4 2 -1 1 -0 0 1 5 4 4 5 5 3 4 3 3 3 2 3 2 1 1 1 2 2 2 3 3 3 3 1 -1 -7 -2 -1 -3
-0 -1 -1 1 2 3 3 3 2 3 4 4 1 2 1 3 3 2 2 2 2 3 2 3 2 2 1 -4 -3 0 2 1 2 3 1 0 -2 -3 -4 -1 -1 -3 -4 -2
1 1 2 4 3 2 2 2 2 3 2 3 2 2 2 2 2 2 1 1 1 2 -1 2 1 1 -1 -4 -2 -0 0 1 1 1 -2 -1 -1 -1 -2 -3 -2 -2 -7 -10
2 3 4 3 2 2 1 1 2 2 2 2 3 3 3 2 2 1 1 0 0 1 -0 2 1 -2 -3 -2 -0 -0 -0 -0 -1 -1 -1 -1 -1 -2 -4 -7 -9 -11 -14 -16
3 3 3 2 2 3 3 4 3 2 1 1 2 1 2 3 2 1 1 2 2 1 2 2 1 -2 -1 -1 -1 -3 -6 -6 -4 -2 -6 -10 -13 -15 -15 -16 -17 -17 -15 -14
3 2 2 1 1 0 0 1 0 -0 0 1 2 1 1 1 1 0 2 1 1 2 2 -1 -0 -1 -2 -5 -4 -6 -6 -6 -5 -6 -10 -12 -13 -14 -15 -15 -14 -13 -13 -12
0 0 -0 -1 -2 -2 -1 -1 -0 -0 0 1 1 0 1 -0 0 -1 -0 -0 -1 -2 -2 -1 -2 -2 -6 -4 -2 -8 -8 -7 -9 -10 -10 -11 -12 -13 -13 -12 -12 -11 -10 -10
-1 -1 -1 -2 -1 -1 -1 -1 -1 -0 -0 0 1 -0 -1 -1 -1 -1 -1 -2 -3 -3 -2 -1 -1 -1 -1 -2 -2 -5 -5 -6 -10 -11 -11 -11 -11 -10 -10 -11 -10 -9 -9 -10
-2 -1 -1 -1 -1 -1 -1 -1 -1 -0 -0 -1 -2 -2 -2 -2 -2 -1 -2 -3 -2 -1 -1 -2 -2 -2 -2 -2 -4 -3 -6 -7 -7 -8 -8 -8 -8 -8 -9 -9 -9 -9 -8 -8

GFSNW_850_dewp_033.txt.gz
Dewpoint
5 1 2 1 1 1 1 4 3 7 4 -0 1 3 1 4 1 -0 1 -1 -0 0 1 3 3 3 2 2 2 1 -0 2 4 2 -2 -1 -1 0 0 2 -1 3 2 0
3 2 1 1 1 1 4 4 7 5 5 3 3 0 2 1 -1 0 0 2 1 3 4 4 4 4 2 1 -0 2 1 2 4 2 -1 -1 0 0 -1 -0 2 3 7 -1
2 2 2 1 0 1 5 3 7 6 4 -3 0 2 1 1 1 1 1 2 2 4 5 4 5 5 2 -1 -0 -0 -1 1 3 4 0 -1 1 2 -1 -0 3 1 2 -2
2 1 2 1 -0 3 6 4 5 5 5 2 -1 -2 2 2 2 1 0 2 2 4 5 5 5 4 2 -1 1 1 -0 1 1 1 1 -1 -3 -1 1 -1 -1 2 -2 -1
1 2 2 1 -0 3 5 3 3 1 2 -0 1 2 3 2 2 2 1 3 3 2 4 3 6 4 2 -2 2 2 1 3 -1 2 1 0 0 -2 -2 0 -1 -1 -1 -1
1 2 2 0 -1 2 5 4 1 -2 2 3 1 3 4 2 3 3 2 2 3 2 3 3 2 1 1 0 2 3 1 2 1 2 -1 -3 1 -0 -1 -2 -2 -1 0 -2
2 2 2 -0 -1 1 3 3 1 -2 2 3 1 3 3 3 1 4 3 1 2 2 2 1 1 2 2 2 2 0 0 -1 -1 1 -1 -2 -4 -2 -3 -2 -2 -3 -2 -1
2 2 2 -1 -1 1 3 3 2 -1 2 0 2 4 5 4 4 5 4 4 2 1 -2 2 2 2 2 2 1 -0 -1 -0 1 3 -0 -4 -8 -5 -1 1 -2 -2 -2 -0
2 2 1 -1 -1 1 3 5 5 2 1 2 2 4 3 4 4 4 5 2 0 -1 -1 1 3 5 2 1 3 2 -1 -2 2 0 -1 -1 -5 -6 -1 -2 2 -2 -1 1
3 3 1 -1 -1 2 3 4 5 2 3 3 4 4 4 3 3 4 3 1 2 -0 1 2 3 2 -2 0 1 4 4 3 3 -1 2 0 -4 -5 -2 1 1 -2 -0 -0
4 3 0 -1 -1 1 1 4 5 3 6 6 5 3 2 3 2 5 4 3 3 1 3 4 2 3 2 1 0 4 4 5 4 1 2 3 -4 -0 2 0 -3 -4 -1 -2
4 3 1 0 -1 0 1 4 5 4 5 6 6 5 3 2 1 2 3 2 2 1 3 0 1 3 2 1 3 1 2 2 3 1 2 -3 -4 -1 -2 -1 -2 -3 -1 -1
4 4 3 1 -1 0 3 3 5 4 6 6 6 6 5 3 2 2 2 1 2 0 -1 -1 1 2 1 4 3 2 1 -1 1 0 -2 -1 -3 -3 -4 -4 -2 -1 -0 -0
5 4 2 0 1 4 3 3 4 3 4 5 5 6 6 5 3 2 1 1 1 -0 -1 -0 1 3 -0 1 1 2 1 -0 1 1 -0 -2 -3 -3 -3 -2 -1 -1 -0 0
5 3 3 4 4 4 1 3 1 0 -3 4 5 5 6 6 5 4 2 1 -0 -0 1 2 3 -1 1 1 1 2 0 1 3 3 -3 -3 -3 -1 0 0 1 1 2 2
4 4 3 4 4 4 2 -1 -1 -4 -3 3 4 5 6 6 5 4 3 3 2 3 3 3 2 1 1 3 3 1 1 1 0 -1 0 1 1 1 2 2 2 2 3 2
3 4 4 3 1 -1 -4 -2 -0 -3 -5 -3 3 3 5 6 6 6 6 5 5 4 4 2 2 3 2 2 4 2 2 2 3 3 3 2 2 3 3 3 3 2 1 -1
1 1 -0 -1 -2 -4 2 3 1 -2 -5 -5 1 1 4 5 6 5 5 6 5 5 4 3 2 3 2 4 0 -1 1 1 2 2 3 3 3 3 2 1 -1 -3 -3 -1
0 -1 -3 -4 -4 -1 4 3 1 -2 -4 -1 -1 1 3 4 4 3 4 4 3 4 3 3 3 2 2 -3 -3 -1 1 1 2 2 2 2 1 -2 -3 -4 -4 -2 -2 -2
-0 -3 -3 -0 3 2 1 -1 -0 -0 2 3 0 1 2 3 3 2 2 3 2 4 2 3 2 2 -3 -1 -1 -0 1 1 3 2 -2 -1 -1 -1 -1 -2 -1 -1 -2 -5
-1 -0 3 3 2 -0 0 2 1 2 1 2 2 2 2 2 3 2 1 2 1 3 1 3 2 1 -4 -1 -1 -1 -0 -0 -1 -1 -1 -1 -1 -1 -2 -3 -5 -7 -9 -11
2 2 2 1 1 1 2 1 1 1 2 2 2 2 2 2 2 1 1 1 -0 2 -1 2 2 -3 -1 -1 -1 -1 -1 -1 -2 -3 -4 -5 -7 -8 -9 -10 -12 -13 -14 -14
1 2 2 2 2 2 -0 3 2 2 1 2 2 1 2 2 2 1 1 2 3 -0 2 2 0 -2 -1 -2 -4 -4 -4 -4 -7 -9 -11 -11 -12 -13 -13 -13 -13 -12 -11 -11
2 1 0 -1 1 1 0 1 1 -0 1 1 2 1 1 1 1 0 3 1 1 2 2 0 -0 -2 -2 -3 -5 -6 -6 -7 -10 -10 -11 -12 -12 -12 -11 -11 -11 -11 -11 -10
1 -1 -0 -1 -2 -1 -1 -1 -0 -0 0 1 1 1 1 0 1 -1 0 1 0 -1 -1 -1 -2 -1 -4 -2 -7 -7 -5 -7 -11 -11 -11 -10 -10 -9 -9 -8 -8 -7 -7 -8
-1 -2 -2 -1 -1 -1 -1 -1 -1 -0 0 1 1 -0 0 -0 -0 -1 -1 -0 -1 -1 -1 -2 -2 -2 -3 -2 -4 -3 -5 -8 -8 -8 -8 -8 -7 -8 -8 -7 -8 -8 -7 -7
-1 -2 -1 -1 -1 -1 -1 -1 -1 -0 -0 -0 -2 -1 -1 -3 -1 -1 -2 -2 -2 -1 -1 -2 -2 -1 -1 -2 -3 -3 -5 -6 -6 -7 -7 -6 -6 -6 -9 -11 -11 -10 -11 -13